Hourly Weather Barreiras

Today, 19 June, Saturday

Time Temperature Precipitation Wind Pressure Humidity
00:00 +24°C° 0 mm 1 mps 722 mmHg 50%
01:00 +24°C° 0 mm 1 mps 722 mmHg 52%
02:00 +23°C° 0 mm 1 mps 722 mmHg 54%
03:00 +23°C° 0 mm 1 mps 722 mmHg 57%
04:00 +22°C° 0 mm 1 mps 722 mmHg 59%
05:00 +22°C° 0 mm 1 mps 722 mmHg 62%
06:00 +21°C° 0 mm 1 mps 723 mmHg 65%
07:00 +24°C° 0 mm 1 mps 723 mmHg 58%
08:00 +26°C° 0 mm 2 mps 724 mmHg 51%
09:00 +29°C° 0 mm 2 mps 725 mmHg 45%
10:00 +30°C° 0 mm 2 mps 724 mmHg 39%
11:00 +32°C° 0 mm 2 mps 724 mmHg 34%
12:00 +35°C° 0 mm 2 mps 724 mmHg 29%
13:00 +36°C° 0 mm 2 mps 723 mmHg 27%
14:00 +36°C° 0 mm 2 mps 722 mmHg 25%
15:00 +37°C° 0 mm 2 mps 721 mmHg 23%
16:00 +35°C° 0 mm 2 mps 721 mmHg 27%
17:00 +32°C° 0 mm 2 mps 721 mmHg 30%
18:00 +30°C° 0 mm 2 mps 721 mmHg 33%
19:00 +29°C° 0 mm 2 mps 722 mmHg 35%
20:00 +28°C° 0 mm 1 mps 722 mmHg 38%
21:00 +27°C° 0 mm 1 mps 723 mmHg 40%
22:00 +26°C° 0 mm 2 mps 723 mmHg 41%
23:00 +25°C° 0 mm 2 mps 723 mmHg 42%

Tomorrow, 20 June, Sunday

Time Temperature Precipitation Wind Pressure Humidity
00:00 +24°C° 0 mm 2 mps 723 mmHg 44%
01:00 +23°C° 0 mm 2 mps 722 mmHg 46%
02:00 +21°C° 0 mm 2 mps 722 mmHg 49%
03:00 +20°C° 0 mm 2 mps 722 mmHg 52%
04:00 +20°C° 0 mm 1 mps 722 mmHg 55%
05:00 +20°C° 0 mm 1 mps 722 mmHg 59%
06:00 +19°C° 0 mm 1 mps 723 mmHg 63%
07:00 +22°C° 0 mm 1 mps 723 mmHg 56%
08:00 +25°C° 0 mm 1 mps 724 mmHg 49%
09:00 +28°C° 0 mm 2 mps 724 mmHg 43%
10:00 +30°C° 0 mm 2 mps 724 mmHg 37%
11:00 +34°C° 0 mm 2 mps 724 mmHg 31%
12:00 +36°C° 0 mm 2 mps 723 mmHg 26%
13:00 +36°C° 0 mm 2 mps 722 mmHg 24%
14:00 +37°C° 0 mm 2 mps 721 mmHg 22%
15:00 +37°C° 0 mm 2 mps 720 mmHg 20%
16:00 +35°C° 0 mm 2 mps 720 mmHg 24%
17:00 +31°C° 0 mm 2 mps 720 mmHg 27%
18:00 +29°C° 0 mm 1 mps 720 mmHg 31%
19:00 +28°C° 0 mm 1 mps 721 mmHg 34%
20:00 +27°C° 0 mm 1 mps 722 mmHg 37%
21:00 +26°C° 0 mm 1 mps 722 mmHg 39%
22:00 +25°C° 0 mm 1 mps 722 mmHg 42%
23:00 +24°C° 0 mm 1 mps 722 mmHg 44%

Day after tomorrow, 21 June, Monday

Time Temperature Precipitation Wind Pressure Humidity
00:00 +23°C° 0 mm 1 mps 722 mmHg 46%
01:00 +22°C° 0 mm 1 mps 722 mmHg 48%
02:00 +21°C° 0 mm 1 mps 721 mmHg 50%
03:00 +21°C° 0 mm 1 mps 721 mmHg 52%
04:00 +20°C° 0 mm 1 mps 721 mmHg 53%
05:00 +20°C° 0 mm 1 mps 722 mmHg 55%
06:00 +17°C° 0 mm 0 mps 722 mmHg 56%
07:00 +23°C° 0 mm 1 mps 722 mmHg 49%
08:00 +26°C° 0 mm 1 mps 723 mmHg 42%
09:00 +29°C° 0 mm 1 mps 724 mmHg 34%
10:00 +32°C° 0 mm 1 mps 723 mmHg 30%
11:00 +34°C° 0 mm 1 mps 723 mmHg 25%
12:00 +36°C° 0 mm 1 mps 723 mmHg 20%
13:00 +38°C° 0 mm 2 mps 722 mmHg 19%
14:00 +38°C° 0 mm 2 mps 721 mmHg 18%
15:00 +38°C° 0 mm 2 mps 720 mmHg 17%
16:00 +36°C° 0 mm 2 mps 720 mmHg 20%
17:00 +32°C° 0 mm 2 mps 720 mmHg 23%
18:00 +29°C° 0 mm 1 mps 720 mmHg 27%
19:00 +28°C° 0 mm 1 mps 720 mmHg 30%
20:00 +26°C° 0 mm 1 mps 721 mmHg 33%
21:00 +25°C° 0 mm 1 mps 721 mmHg 36%
22:00 +24°C° 0 mm 1 mps 721 mmHg 38%
23:00 +23°C° 0 mm 1 mps 721 mmHg 40%

22 June, Tuesday

Time Temperature Precipitation Wind Pressure Humidity
00:00 +22°C° 0 mm 1 mps 721 mmHg 42%
01:00 +22°C° 0 mm 1 mps 721 mmHg 44%
02:00 +22°C° 0 mm 1 mps 721 mmHg 47%
03:00 +19°C° 0 mm 0 mps 721 mmHg 49%
04:00 +19°C° 0 mm 0 mps 721 mmHg 54%
05:00 +19°C° 0 mm 0 mps 721 mmHg 58%
06:00 +19°C° 0 mm 0 mps 721 mmHg 62%
07:00 +24°C° 0 mm 1 mps 722 mmHg 57%
08:00 +27°C° 0 mm 1 mps 723 mmHg 52%
09:00 +30°C° 0 mm 1 mps 723 mmHg 47%
10:00 +32°C° 0 mm 1 mps 723 mmHg 40%
11:00 +35°C° 0 mm 2 mps 722 mmHg 34%
12:00 +37°C° 0 mm 2 mps 722 mmHg 27%
13:00 +38°C° 0 mm 2 mps 721 mmHg 25%
14:00 +38°C° 0 mm 2 mps 720 mmHg 24%
15:00 +39°C° 0 mm 2 mps 719 mmHg 22%
16:00 +37°C° 0 mm 2 mps 719 mmHg 25%
17:00 +35°C° 0 mm 2 mps 719 mmHg 27%
18:00 +32°C° 0 mm 2 mps 719 mmHg 30%
19:00 +31°C° 0 mm 2 mps 720 mmHg 32%
20:00 +29°C° 0 mm 2 mps 720 mmHg 34%
21:00 +28°C° 0 mm 2 mps 721 mmHg 36%
22:00 +27°C° 0 mm 1 mps 721 mmHg 38%
23:00 +26°C° 0 mm 1 mps 721 mmHg 39%

23 June, Wednesday

Time Temperature Precipitation Wind Pressure Humidity
00:00 +26°C° 0 mm 1 mps 721 mmHg 40%
01:00 +25°C° 0 mm 1 mps 721 mmHg 45%
02:00 +24°C° 0 mm 1 mps 720 mmHg 49%
03:00 +22°C° 0 mm 0 mps 720 mmHg 53%
04:00 +23°C° 0 mm 1 mps 720 mmHg 58%
05:00 +22°C° 0 mm 1 mps 721 mmHg 63%
06:00 +22°C° 0 mm 1 mps 721 mmHg 68%
07:00 +24°C° 0 mm 1 mps 721 mmHg 61%
08:00 +27°C° 0 mm 2 mps 722 mmHg 53%
09:00 +30°C° 0 mm 2 mps 723 mmHg 46%
10:00 +32°C° 0 mm 2 mps 722 mmHg 39%
11:00 +35°C° 0 mm 2 mps 722 mmHg 32%
12:00 +38°C° 0 mm 2 mps 722 mmHg 24%
13:00 +38°C° 0 mm 3 mps 721 mmHg 22%
14:00 +39°C° 0 mm 3 mps 720 mmHg 19%
15:00 +39°C° 0 mm 3 mps 719 mmHg 17%
16:00 +37°C° 0 mm 3 mps 719 mmHg 19%
17:00 +34°C° 0 mm 3 mps 720 mmHg 21%
18:00 +31°C° 0 mm 2 mps 720 mmHg 23%
19:00 +29°C° 0 mm 2 mps 720 mmHg 27%
20:00 +28°C° 0 mm 2 mps 720 mmHg 30%
21:00 +26°C° 0 mm 1 mps 721 mmHg 33%
22:00 +25°C° 0 mm 1 mps 721 mmHg 36%
23:00 +24°C° 0 mm 1 mps 721 mmHg 38%

24 June, Thursday

Time Temperature Precipitation Wind Pressure Humidity
00:00 +23°C° 0 mm 1 mps 721 mmHg 41%
01:00 +23°C° 0 mm 1 mps 721 mmHg 47%
02:00 +22°C° 0 mm 1 mps 721 mmHg 53%
03:00 +21°C° 0 mm 1 mps 721 mmHg 60%
04:00 +21°C° 0 mm 1 mps 721 mmHg 65%
05:00 +20°C° 0 mm 1 mps 722 mmHg 70%
06:00 +19°C° 0 mm 1 mps 722 mmHg 76%
07:00 +22°C° 0 mm 1 mps 723 mmHg 66%
08:00 +25°C° 0 mm 2 mps 723 mmHg 56%
09:00 +28°C° 0 mm 2 mps 724 mmHg 46%
10:00 +30°C° 0 mm 2 mps 723 mmHg 40%
11:00 +32°C° 0 mm 2 mps 723 mmHg 33%
12:00 +36°C° 0 mm 2 mps 722 mmHg 26%
13:00 +36°C° 0 mm 2 mps 722 mmHg 24%
14:00 +37°C° 0 mm 2 mps 721 mmHg 22%
15:00 +38°C° 0 mm 2 mps 720 mmHg 20%
16:00 +36°C° 0 mm 2 mps 720 mmHg 24%
17:00 +32°C° 0 mm 2 mps 720 mmHg 27%
18:00 +30°C° 0 mm 2 mps 720 mmHg 30%
19:00 +29°C° 0 mm 1 mps 720 mmHg 34%
20:00 +27°C° 0 mm 1 mps 721 mmHg 38%
21:00 +26°C° 0 mm 1 mps 721 mmHg 42%
22:00 +25°C° 0 mm 1 mps 721 mmHg 45%
23:00 +24°C° 0 mm 1 mps 721 mmHg 47%
Show more